EW3883 Weather Reports


Display with metric or nautical units.
time (UTC)temp
F
wind
direction
speed
MPH
gust
MPH
rain 1hr
in
rain 24hr
in
rain mn
in
humidity
%
barometer
mb
20260902203540 101 71 0.0 1.0 0.00 0.00 0.00 52 1017.9
20260902203058 100 0 0.0 1.0 0.00 0.00 0.00 52 1017.9
20260902202539 100 0 0.0 1.0 0.00 0.00 0.00 52 1017.9
20260902202036 100 0 0.0 1.0 0.00 0.00 0.00 52 1017.9
20260902201554 100 0 0.0 1.0 0.00 0.00 0.00 53 1017.9
20260902201035 100 152 0.0 2.0 0.00 0.00 0.00 54 1018.0
20260902200535 100 0 0.0 2.0 0.00 0.00 0.00 53 1018.0
20260902195537 100 128 0.0 3.0 0.00 0.00 0.00 53 1018.1
20260902195036 99 0 0.0 1.0 0.00 0.00 0.00 55 1018.2
20260902194602 99 0 0.0 3.0 0.00 0.00 0.00 54 1018.2
20260902194036 99 0 0.0 3.0 0.00 0.00 0.00 56 1018.3
20260902193540 99 254 0.0 1.0 0.00 0.00 0.00 53 1018.4
20260902193058 98 0 0.0 1.0 0.00 0.00 0.00 56 1018.5
20260902192538 98 250 0.0 1.0 0.00 0.00 0.00 57 1018.6
20260902192040 97 0 0.0 2.0 0.00 0.00 0.00 57 1018.7
20260902191555 97 0 0.0 2.0 0.00 0.00 0.00 59 1018.7
20260902191038 97 0 0.0 2.0 0.00 0.00 0.00 58 1018.8
20260902190536 97 0 0.0 2.0 0.00 0.00 0.00 57 1018.8
20260902190054 97 0 0.0 1.0 0.00 0.00 0.00 59 1018.8
20260902185536 98 0 0.0 1.0 0.00 0.00 0.00 56 1019.0
20260902185040 98 0 0.0 1.0 0.00 0.00 0.00 55 1018.9
20260902184601 98 235 0.0 3.0 0.00 0.00 0.00 57 1018.9
20260902184036 98 0 0.0 3.0 0.00 0.00 0.00 57 1018.9
20260902183539 98 281 0.0 2.0 0.00 0.00 0.00 55 1018.9
20260902183102 99 0 0.0 1.0 0.00 0.00 0.00 59 1019.0
20260902182536 98 0 0.0 2.0 0.00 0.00 0.00 57 1019.1
20260902182043 98 0 0.0 2.0 0.00 0.00 0.00 54 1019.1
20260902181558 99 119 0.0 2.0 0.00 0.00 0.00 57 1019.1
20260902181035 98 275 0.0 2.0 0.00 0.00 0.00 58 1019.1
20260902180538 98 274 0.0 2.0 0.00 0.00 0.00 57 1019.2
20260902180104 98 267 0.0 2.0 0.00 0.00 0.00 58 1019.2
20260902175536 98 129 0.0 2.0 0.00 0.00 0.00 57 1019.2
20260902175040 98 193 0.0 2.0 0.00 0.00 0.00 56 1019.3
20260902174608 98 96 0.0 2.0 0.00 0.00 0.00 58 1019.3
20260902174039 98 58 0.0 2.0 0.00 0.00 0.00 57 1019.4
20260902173536 98 0 0.0 2.0 0.00 0.00 0.00 55 1019.5
20260902173050 98 0 0.0 2.0 0.00 0.00 0.00 58 1019.5
20260902172536 98 243 0.0 2.0 0.00 0.00 0.00 58 1019.5
20260902172039 98 95 0.0 2.0 0.00 0.00 0.00 60 1019.6
20260902171607 97 219 0.0 1.0 0.00 0.00 0.00 59 1019.6
20260902171042 97 0 0.0 1.0 0.00 0.00 0.00 62 1019.6
20260902170537 97 133 0.0 1.0 0.00 0.00 0.00 64 1019.5
20260902170058 97 134 0.0 3.0 0.00 0.00 0.00 63 1019.7
20260902165538 97 0 0.0 3.0 0.00 0.00 0.00 65 1019.8
20260902165039 96 335 0.0 2.0 0.00 0.00 0.00 64 1019.8
20260902164553 96 57 0.0 3.0 0.00 0.00 0.00 64 1019.9
20260902164035 96 0 0.0 3.0 0.00 0.00 0.00 63 1019.9
20260902163537 96 0 0.0 3.0 0.00 0.00 0.00 64 1019.8
20260902163101 95 0 0.0 2.0 0.00 0.00 0.00 68 1019.9
20260902162539 95 309 0.0 2.0 0.00 0.00 0.00 69 1019.9
20260902162037 94 0 0.0 2.0 0.00 0.00 0.00 69 1020.0
20260902161603 94 0 0.0 2.0 0.00 0.00 0.00 66 1019.9
20260902161039 94 295 0.0 1.0 0.00 0.00 0.00 68 1020.0
20260902160537 93 102 0.0 2.0 0.00 0.00 0.00 70 1020.0
20260902155537 93 0 0.0 2.0 0.00 0.00 0.00 68 1020.1
20260902155038 93 0 0.0 1.0 0.00 0.00 0.00 69 1020.2
20260902154551 93 0 0.0 1.0 0.00 0.00 0.00 72 1020.3
20260902154038 92 0 0.0 2.0 0.00 0.00 0.00 73 1020.2
20260902153537 92 213 0.0 2.0 0.00 0.00 0.00 73 1020.3
20260902153055 92 129 0.0 1.0 0.00 0.00 0.00 71 1020.3
20260902152536 91 296 0.0 1.0 0.00 0.00 0.00 72 1020.3
20260902152037 91 0 0.0 1.0 0.00 0.00 0.00 75 1020.4
20260902151556 90 0 0.0 1.0 0.00 0.00 0.00 75 1020.4
20260902151039 90 0 0.0 1.0 0.00 0.00 0.00 74 1020.4
20260902150538 89 0 0.0 1.0 0.00 0.00 0.00 76 1020.4
20260902150055 89 269 0.0 2.0 0.00 0.00 0.00 74 1020.4
20260902145538 89 240 0.0 2.0 0.00 0.00 0.00 75 1020.4
20260902145036 89 0 0.0 1.0 0.00 0.00 0.00 76 1020.4
20260902144550 88 0 0.0 0.0 0.00 0.00 0.00 76 1020.2
20260902144036 88 0 0.0 0.0 0.00 0.00 0.00 77 1020.3
20260902143536 88 0 0.0 0.0 0.00 0.00 0.00 78 1020.2
20260902143058 88 0 0.0 0.0 0.00 0.00 0.00 79 1020.2
20260902142539 87 0 0.0 0.0 0.00 0.00 0.00 80 1020.2
20260902142039 87 0 0.0 0.0 0.00 0.00 0.00 79 1020.1
20260902141602 86 0 0.0 0.0 0.00 0.00 0.00 80 1020.3
20260902141037 86 0 0.0 0.0 0.00 0.00 0.00 80 1020.2
20260902140536 85 0 0.0 0.0 0.00 0.00 0.00 81 1020.2
20260902140053 85 0 0.0 0.0 0.00 0.00 0.00 82 1020.3
20260902135536 84 0 0.0 0.0 0.00 0.00 0.00 83 1020.4
20260902135037 84 0 0.0 0.0 0.00 0.00 0.00 83 1020.5
20260902134548 83 0 0.0 0.0 0.00 0.00 0.00 84 1020.5
20260902134035 83 0 0.0 0.0 0.00 0.00 0.00 83 1020.4
20260902133539 83 0 0.0 0.0 0.00 0.00 0.00 85 1020.5
20260902133056 83 0 0.0 0.0 0.00 0.00 0.00 86 1020.4
20260902132538 82 0 0.0 0.0 0.00 0.00 0.00 86 1020.4
20260902132037 82 0 0.0 0.0 0.00 0.00 0.00 85 1020.3
20260902131554 81 0 0.0 0.0 0.00 0.00 0.00 86 1020.4
20260902131038 81 0 0.0 0.0 0.00 0.00 0.00 87 1020.4
20260902130538 80 0 0.0 0.0 0.00 0.00 0.00 88 1020.3
20260902130052 80 0 0.0 0.0 0.00 0.00 0.00 89 1020.3
20260902125537 79 0 0.0 0.0 0.00 0.00 0.00 89 1020.2
20260902125036 79 0 0.0 0.0 0.00 0.00 0.00 89 1020.2
20260902124604 78 0 0.0 0.0 0.00 0.00 0.00 91 1020.1
20260902124036 78 0 0.0 0.0 0.00 0.00 0.00 91 1020.2
20260902123540 78 0 0.0 0.0 0.00 0.00 0.00 91 1020.2
20260902123059 77 0 0.0 0.0 0.00 0.00 0.00 91 1020.1
20260902122538 77 0 0.0 0.0 0.00 0.00 0.00 92 1020.0
20260902122038 77 0 0.0 0.0 0.00 0.00 0.00 92 1020.0
20260902121607 77 0 0.0 0.0 0.00 0.00 0.00 92 1020.0
20260902121037 76 0 0.0 0.0 0.00 0.00 0.00 93 1019.9
20260902120537 76 0 0.0 0.0 0.00 0.00 0.00 93 1019.8
20260902120110 75 0 0.0 0.0 0.00 0.00 0.00 94 1019.8
20260902115541 75 0 0.0 0.0 0.00 0.00 0.00 95 1019.7
20260902115036 74 0 0.0 0.0 0.00 0.00 0.00 96 1019.7
20260902114616 74 0 0.0 0.0 0.00 0.00 0.00 95 1019.6
20260902114037 74 0 0.0 0.0 0.00 0.00 0.00 95 1019.6
20260902113537 74 0 0.0 0.0 0.00 0.00 0.00 95 1019.6
20260902113100 74 0 0.0 0.0 0.00 0.00 0.00 95 1019.6
20260902112538 74 0 0.0 0.0 0.00 0.00 0.00 95 1019.6
20260902112040 74 0 0.0 0.0 0.00 0.00 0.00 95 1019.4
20260902111600 74 0 0.0 0.0 0.00 0.00 0.00 95 1019.3
20260902111035 74 0 0.0 0.0 0.00 0.00 0.00 95 1019.4
20260902110536 74 0 0.0 0.0 0.00 0.00 0.00 95 1019.4
20260902110110 74 0 0.0 0.0 0.00 0.00 0.00 95 1019.4
20260902105539 74 0 0.0 0.0 0.00 0.00 0.00 95 1019.4
20260902105039 74 0 0.0 0.0 0.00 0.00 0.00 95 1019.4
20260902104557 74 0 0.0 0.0 0.00 0.00 0.00 95 1019.5
20260902104039 74 0 0.0 0.0 0.00 0.00 0.00 95 1019.6
20260902103542 74 0 0.0 0.0 0.00 0.00 0.00 95 1019.5
20260902103116 74 0 0.0 0.0 0.00 0.00 0.00 95 1019.5
20260902102539 74 0 0.0 0.0 0.00 0.00 0.00 95 1019.4
20260902102038 74 0 0.0 0.0 0.00 0.00 0.00 95 1019.3
20260902101551 74 0 0.0 0.0 0.00 0.00 0.00 95 1019.4
20260902101039 74 0 0.0 0.0 0.00 0.00 0.00 94 1019.3
20260902100543 74 0 0.0 0.0 0.00 0.00 0.00 94 1019.3
20260902100101 74 0 0.0 0.0 0.00 0.00 0.00 94 1019.2
20260902095538 75 0 0.0 0.0 0.00 0.00 0.00 94 1019.2
20260902095039 75 0 0.0 0.0 0.00 0.00 0.00 95 1019.2
20260902094600 75 0 0.0 0.0 0.00 0.00 0.00 95 1019.3
20260902094039 75 0 0.0 0.0 0.00 0.00 0.00 95 1019.2
20260902093539 75 0 0.0 0.0 0.00 0.00 0.00 95 1019.3
20260902093103 75 0 0.0 0.0 0.00 0.00 0.00 95 1019.3
20260902092539 75 0 0.0 0.0 0.00 0.00 0.00 94 1019.3
20260902092040 75 0 0.0 0.0 0.00 0.00 0.00 94 1019.2
20260902091601 75 0 0.0 0.0 0.00 0.00 0.00 94 1019.2
20260902091039 75 0 0.0 0.0 0.00 0.00 0.00 94 1019.3
20260902090540 75 0 0.0 0.0 0.00 0.00 0.00 94 1019.1
20260902090101 75 0 0.0 0.0 0.00 0.00 0.00 94 1019.2
20260902085538 75 0 0.0 0.0 0.00 0.00 0.00 94 1019.0
20260902085039 75 0 0.0 0.0 0.00 0.00 0.00 94 1019.0
20260902084552 75 0 0.0 0.0 0.00 0.00 0.00 94 1019.0
20260902084039 75 0 0.0 0.0 0.00 0.00 0.00 94 1018.9
20260902083539 75 0 0.0 0.0 0.00 0.00 0.00 94 1018.8
20260902083102 75 0 0.0 0.0 0.00 0.00 0.00 94 1018.7
20260902082539 75 0 0.0 0.0 0.00 0.00 0.00 94 1018.8
20260902082039 75 0 0.0 0.0 0.00 0.00 0.00 93 1018.7
20260902081559 75 0 0.0 0.0 0.00 0.00 0.00 93 1018.6
20260902081040 75 0 0.0 0.0 0.00 0.00 0.00 93 1018.6
20260902080539 75 0 0.0 0.0 0.00 0.00 0.00 93 1018.7
20260902080053 76 0 0.0 0.0 0.00 0.00 0.00 92 1018.6
20260902075537 76 0 0.0 0.0 0.00 0.00 0.00 92 1018.6
20260902075037 76 0 0.0 0.0 0.00 0.00 0.00 92 1018.5
20260902074606 76 0 0.0 0.0 0.00 0.00 0.00 92 1018.6
20260902074040 76 0 0.0 0.0 0.00 0.00 0.00 91 1018.5
20260902073539 76 0 0.0 0.0 0.00 0.00 0.00 91 1018.5
20260902073107 76 0 0.0 0.0 0.00 0.00 0.00 91 1018.6
20260902072538 76 0 0.0 0.0 0.00 0.00 0.00 91 1018.5
20260902072040 76 0 0.0 0.0 0.00 0.00 0.00 90 1018.5
20260902071556 76 0 0.0 0.0 0.00 0.00 0.00 91 1018.5
20260902071040 77 0 0.0 0.0 0.00 0.00 0.00 91 1018.6
20260902070538 77 0 0.0 0.0 0.00 0.00 0.00 90 1018.6
20260902070056 77 0 0.0 0.0 0.00 0.00 0.00 90 1018.6
20260902065540 77 0 0.0 1.0 0.00 0.00 0.00 91 1018.6
20260902065040 77 0 0.0 1.0 0.00 0.00 0.00 91 1018.6
20260902064555 77 0 0.0 0.0 0.00 0.00 0.00 90 1018.6
20260902064041 77 0 0.0 0.0 0.00 0.00 0.00 90 1018.6
20260902063536 77 0 0.0 0.0 0.00 0.00 0.00 90 1018.6
20260902063048 77 0 0.0 0.0 0.00 0.00 0.00 89 1018.6
20260902062540 77 0 0.0 0.0 0.00 0.00 0.00 89 1018.7
20260902062039 78 0 0.0 0.0 0.00 0.00 0.00 89 1018.6
20260902061604 78 0 0.0 0.0 0.00 0.00 0.00 89 1018.7
20260902061042 78 0 0.0 0.0 0.00 0.00 0.00 88 1018.6
20260902060538 78 0 0.0 0.0 0.00 0.00 0.00 88 1018.6
20260902060100 78 0 0.0 0.0 0.00 0.00 0.00 88 1018.7
20260902055536 78 0 0.0 0.0 0.00 0.00 0.00 87 1018.7
20260902055036 78 0 0.0 0.0 0.00 0.00 0.00 87 1018.7
20260902054552 79 0 0.0 0.0 0.00 0.00 0.00 87 1018.7
20260902054039 79 0 0.0 1.0 0.00 0.00 0.00 87 1018.7
20260902053541 79 0 0.0 1.0 0.00 0.00 0.00 87 1018.7
20260902053106 79 0 0.0 0.0 0.00 0.00 0.00 87 1018.6
20260902052540 79 0 0.0 0.0 0.00 0.00 0.00 86 1018.7
20260902052039 79 0 0.0 0.0 0.00 0.00 0.00 86 1018.8
20260902051557 79 0 0.0 0.0 0.00 0.00 0.00 86 1018.8
20260902051042 79 0 0.0 0.0 0.00 0.00 0.00 85 1018.7
20260902050539 79 0 0.0 1.0 0.00 0.00 0.00 85 1018.7
20260902050059 80 0 0.0 1.0 0.00 0.00 0.00 85 1018.8
20260902045538 80 0 0.0 1.0 0.00 0.00 0.00 85 1018.7
20260902045038 79 0 0.0 1.0 0.00 0.00 0.00 85 1018.7
20260902044557 79 0 0.0 1.0 0.00 0.00 0.00 85 1018.7
20260902044039 79 0 0.0 0.0 0.00 0.00 0.00 85 1018.7
20260902043539 79 0 0.0 0.0 0.00 0.00 0.00 85 1018.7
20260902043106 79 0 0.0 0.0 0.00 0.00 0.00 85 1018.7
20260902042541 79 0 0.0 0.0 0.00 0.00 0.00 85 1018.7
20260902042039 79 0 0.0 0.0 0.00 0.00 0.00 85 1018.7
20260902041555 79 0 0.0 0.0 0.00 0.00 0.00 85 1018.8
20260902041035 80 0 0.0 0.0 0.00 0.00 0.00 84 1018.8
20260902040539 80 0 0.0 0.0 0.00 0.00 0.00 84 1018.8
20260902035538 80 0 0.0 0.0 0.00 0.00 0.00 83 1018.7
20260902035039 80 0 0.0 0.0 0.00 0.00 0.00 83 1018.8
20260902034603 80 0 0.0 0.0 0.00 0.00 0.00 83 1018.8
20260902034035 80 0 0.0 0.0 0.00 0.00 0.00 83 1018.8
20260902033536 80 0 0.0 0.0 0.00 0.00 0.00 83 1018.7
20260902033107 80 0 0.0 0.0 0.00 0.00 0.00 83 1018.8
20260902032538 81 0 0.0 0.0 0.00 0.00 0.00 83 1018.7
20260902032036 81 0 0.0 0.0 0.00 0.00 0.00 83 1018.7
20260902031558 81 0 0.0 0.0 0.00 0.00 0.00 82 1018.6
20260902031036 81 0 0.0 0.0 0.00 0.00 0.00 82 1018.6
20260902030537 81 0 0.0 0.0 0.00 0.00 0.00 82 1018.6
20260902030051 81 0 0.0 0.0 0.00 0.00 0.00 82 1018.6
20260902025536 81 0 0.0 0.0 0.00 0.00 0.00 82 1018.6
20260902025038 81 0 0.0 0.0 0.00 0.00 0.00 82 1018.6
20260902024552 81 0 0.0 0.0 0.00 0.00 0.00 82 1018.7
20260902024036 82 0 0.0 0.0 0.00 0.00 0.00 82 1018.7
20260902023535 82 0 0.0 0.0 0.00 0.00 0.00 81 1018.7
20260902023051 82 0 0.0 0.0 0.00 0.00 0.00 81 1018.7
20260902022535 82 0 0.0 0.0 0.00 0.00 0.00 81 1018.7
20260902022039 82 0 0.0 0.0 0.00 0.00 0.00 81 1018.7
20260902021553 82 0 0.0 0.0 0.00 0.00 0.00 81 1018.7
20260902021039 82 0 0.0 0.0 0.00 0.00 0.00 81 1018.6
20260902020539 82 0 0.0 0.0 0.00 0.00 0.00 81 1018.5
20260902020059 82 0 0.0 0.0 0.00 0.00 0.00 81 1018.6
20260902015535 82 0 0.0 0.0 0.00 0.00 0.00 80 1018.6
20260902015035 82 0 0.0 0.0 0.00 0.00 0.00 80 1018.5
20260902014552 82 0 0.0 0.0 0.00 0.00 0.00 79 1018.6
20260902014036 83 0 0.0 0.0 0.00 0.00 0.00 79 1018.5
20260902013541 83 0 0.0 0.0 0.00 0.00 0.00 79 1018.6
20260902013059 83 0 0.0 0.0 0.00 0.00 0.00 79 1018.5
20260902012535 83 0 0.0 0.0 0.00 0.00 0.00 78 1018.4
20260902012040 83 0 0.0 0.0 0.00 0.00 0.00 78 1018.2
20260902011556 83 0 0.0 0.0 0.00 0.00 0.00 78 1018.3
20260902011039 83 0 0.0 0.0 0.00 0.00 0.00 78 1018.2
20260902010536 84 0 0.0 0.0 0.00 0.00 0.00 78 1018.1
20260902010057 84 0 0.0 0.0 0.00 0.00 0.00 78 1018.1
20260902005535 84 0 0.0 0.0 0.00 0.00 0.00 77 1018.1
20260902005037 84 0 0.0 0.0 0.00 0.00 0.00 77 1018.2
20260902004552 84 0 0.0 0.0 0.00 0.00 0.00 77 1018.1
20260902004043 85 0 0.0 0.0 0.00 0.00 0.00 77 1018.0
20260902003539 85 0 0.0 0.0 0.00 0.00 0.00 76 1018.0
20260902003100 85 0 0.0 0.0 0.00 0.00 0.00 75 1018.1
20260902002535 85 0 0.0 0.0 0.00 0.00 0.00 74 1018.0
20260902002035 86 0 0.0 0.0 0.00 0.00 0.00 73 1018.1
20260902001558 86 0 0.0 0.0 0.00 0.00 0.00 72 1018.2
20260902001037 86 0 0.0 0.0 0.00 0.00 0.00 72 1018.1
20260902000540 87 0 0.0 0.0 0.00 0.00 0.00 71 1018.1
20260901235537 88 0 0.0 0.0 0.00 0.00 0.00 69 1018.2
20260901235038 88 0 0.0 0.0 0.00 0.00 0.00 69 1018.2
20260901234613 88 0 0.0 0.0 0.00 0.00 0.00 68 1018.2
20260901234035 88 0 0.0 0.0 0.00 0.00 0.00 68 1018.2
20260901233538 89 0 0.0 0.0 0.00 0.00 0.00 67 1018.3
20260901233104 89 0 0.0 0.0 0.00 0.00 0.00 67 1018.3
20260901232539 89 0 0.0 0.0 0.00 0.00 0.00 66 1018.3
20260901232039 89 0 0.0 0.0 0.00 0.00 0.00 66 1018.4
20260901231554 89 0 0.0 0.0 0.00 0.00 0.00 66 1018.4
20260901231040 90 0 0.0 0.0 0.00 0.00 0.00 66 1018.4
20260901230539 90 0 0.0 0.0 0.00 0.00 0.00 65 1018.4
20260901230052 90 0 0.0 1.0 0.00 0.00 0.00 65 1018.4
20260901225537 90 0 0.0 1.0 0.00 0.00 0.00 64 1018.4
20260901225035 91 0 0.0 1.0 0.00 0.00 0.00 63 1018.4
20260901224601 91 0 0.0 1.0 0.00 0.00 0.00 63 1018.5
20260901224035 91 0 0.0 1.0 0.00 0.00 0.00 63 1018.4
20260901223539 91 0 0.0 1.0 0.00 0.00 0.00 62 1018.4
20260901223055 91 0 0.0 1.0 0.00 0.00 0.00 61 1018.3
20260901222537 92 0 0.0 0.0 0.00 0.00 0.00 61 1018.3
20260901222036 92 0 0.0 1.0 0.00 0.00 0.00 60 1018.4
20260901221554 92 0 0.0 1.0 0.00 0.00 0.00 61 1018.4
20260901221036 93 229 0.0 1.0 0.00 0.00 0.00 60 1018.4
20260901220535 93 0 0.0 1.0 0.00 0.00 0.00 58 1018.4
20260901220113 94 0 0.0 1.0 0.00 0.00 0.00 58 1018.3
20260901215539 94 0 0.0 1.0 0.00 0.00 0.00 57 1018.2
20260901215035 95 108 0.0 1.0 0.00 0.00 0.00 56 1018.4
20260901214557 96 0 0.0 1.0 0.00 0.00 0.00 54 1018.3
20260901214039 96 0 0.0 1.0 0.00 0.00 0.00 54 1018.2
20260901213539 97 0 0.0 1.0 0.00 0.00 0.00 55 1018.2
20260901213054 97 0 0.0 1.0 0.00 0.00 0.00 55 1018.2
20260901212537 97 0 0.0 1.0 0.00 0.00 0.00 54 1018.3
20260901212041 97 114 0.0 1.0 0.00 0.00 0.00 54 1018.4
20260901211553 98 0 0.0 1.0 0.00 0.00 0.00 54 1018.3
20260901211036 98 129 0.0 1.0 0.00 0.00 0.00 56 1018.3
20260901210538 98 0 0.0 1.0 0.00 0.00 0.00 54 1018.3
20260901210051 98 0 0.0 2.0 0.00 0.00 0.00 56 1018.4
20260901205536 98 110 0.0 2.0 0.00 0.00 0.00 54 1018.5
20260901205038 99 0 0.0 2.0 0.00 0.00 0.00 53 1018.5
20260901204553 99 0 0.0 1.0 0.00 0.00 0.00 53 1018.5
20260901204038 99 0 0.0 2.0 0.00 0.00 0.00 53 1018.5